Location: Aalsum
(53.3404°N, 6.0062°E)
Time: 10:21:40
(UTC+00:00)

Cosmos 1269 Rocket - Pass Details

Date: 28 January 2023
Orbit: 771 x 779 km, 74.1° (Epoch: 19 March)

Event Time Altitude Azimuth Distance (km) Brightness Sun altitude
Rises 17:38:47 0° 213° (SSW) 3,241 8.0 -13.0°
Reaches altitude 10° 17:41:10 10° 216° (SW) 2,318 7.2 -13.3°
Maximum altitude 17:46:24 66° 299° (WNW) 846 4.4 -14.1°
Drops below altitude 10° 17:51:42 10° 23° (NNE) 2,339 6.2 -14.9°
Enters shadow 17:52:50 - 24° (NNE) 2,775 6.6 -15.0°
